Location: Dittelbrunn
(50.0738°N, 10.2196°E)
Time: 17:28:34
(UTC+00:00)

Okean-O - Pass Details

Date: 18 September 2020
Orbit: 638 x 641 km, 98.2° (Epoch: 31 October)

Event Time Altitude Azimuth Distance (km) Brightness Sun altitude
Rises 18:06:38 0° 181° (S) 2,934 5.9 -7.4°
Reaches altitude 10° 18:08:54 10° 188° (S) 2,030 5.2 -7.8°
Maximum altitude 18:13:09 45° 261° (W) 884 3.9 -8.4°
Drops below altitude 10° 18:17:26 10° 334° (NNW) 2,047 5.8 -9.1°
Sets 18:19:44 0° 341° (NNW) 2,961 6.5 -9.5°
